Location: Fensholt
(55.9856°N, 10.0808°E)
Time: 02:06:19
(UTC+00:00)

ADEOS II - Pass Details

Date: 07 June 2020
Orbit: 800 x 801 km, 98.5° (Epoch: 05 July)

Event Time Altitude Azimuth Distance (km) Brightness Sun altitude
Rises 01:00:18 0° 20° (NNE) 3,324 7.8 -8.3°
Reaches altitude 10° 01:02:54 10° 31° (NNE) 2,389 6.3 -8.2°
Maximum altitude 01:07:35 32° 94° (E) 1,362 3.6 -7.9°
Drops below altitude 10° 01:12:15 10° 156° (SSE) 2,373 4.2 -7.6°
Enters shadow 01:14:40 - 166° (SSE) 3,243 4.8 -7.5°
